Simultaneous Nadir Overpasses (SNOs) Predictions

Prediction of SNOs between GOES-15 and TERRA Satellite Orbit:

Table of predicted SNOs for the next 14.0 days since TLE Epoch: 10/17/2015
Index Date Time (GOES-15) GOES-15 Lat,Lon TERRA Lat,Lon Distance(km) Time Diff (sec)
1 10/17/2015 07:31:16 0.31,-134.66 0.27,-134.90 27.39 80
2 10/19/2015 07:16:26 0.31,-134.58 0.88,-131.95 299.00 80
3 10/19/2015 19:37:42 -0.30,-134.62 0.22,-137.11 282.81 80
4 10/21/2015 19:28:12 -0.30,-134.53 -0.40,-134.16 42.96 80
5 10/23/2015 19:16:01 -0.30,-134.43 -0.97,-131.19 367.99 80
6 10/24/2015 07:37:24 0.29,-134.35 -0.16,-136.38 231.72 80
7 10/26/2015 07:22:35 0.29,-134.24 0.49,-133.43 92.66 80
8 10/26/2015 19:43:50 -0.28,-134.27 0.61,-138.59 490.52 80
9 10/28/2015 07:10:24
